User: anonymous   Login
Location: Unspecified
(47.5840°N, 122.3000°W)
Time: 20:59:14
(UTC+00:00)
Language:

USA 59 Rocket - Orbit

View from above orbital plane
View from above orbital plane
View from above satellite
View from above satellite

Ground track
Ground track

The orbit is defined by the following mean orbital elements,

1 20682U          26039.60748492 +.00000000 +00000-0 +42154-3 0 00000
2 20682  63.2941 195.7338 0880651  80.4712 289.4624 13.64166212    08
Epoch (UTC): 08 February 2026 14:34:46
Eccentricity: 0.0880651
inclination: 63.2941°
perigee height: 369 km
apogee height: 1672 km
right ascension of ascending node: 195.7338°
argument of perigee: 80.4712°
revolutions per day: 13.64166212
mean anomaly at epoch: 289.4624°

The dashed part of the orbit path shows where the satellite is in the earth's shadow,  

DLR